WMT729 EGNM-LROP

Flight info

Callsign WMT729
Flight time N/A
Altitude 35000
Route LAMIX3W LAMIX L603 LAMSO DCT OSTRA DCT OMELO DCT OMIFU DCT ROMIS DCT KREMI DCT DEMOP DCT WITRI DCT NARKA DCT DENAK DENAK1U
Aircraft A321/M-SDE3FGHIRWY/LB1

Departure

Time 2026-05-06 13:52
Airport Leeds Bradford Airport (EGNM)

Arrival

Time N/A
Airport Bucharest Henri Coandă International Airport (LROP)
Time Latitude Longitude Altitude Speed Heading
2026-05-06 13:25 53.86879 -1.65760 665 ft 0 kts
2026-05-06 13:41 53.86861 -1.65761 665 ft 4 kts
2026-05-06 13:41 53.86842 -1.65762 665 ft 3 kts
2026-05-06 13:41 53.86814 -1.65773 661 ft 4 kts 70°
2026-05-06 13:42 53.86812 -1.65811 663 ft 4 kts 92°
2026-05-06 13:42 53.86812 -1.65824 663 ft 4 kts 92°
2026-05-06 13:42 53.86813 -1.65857 664 ft 0 kts 92°
2026-05-06 13:47 53.86813 -1.65849 663 ft 2 kts 92°
2026-05-06 13:47 53.86811 -1.65797 664 ft 6 kts 98°
2026-05-06 13:47 53.86775 -1.65756 666 ft 8 kts 152°
2026-05-06 13:48 53.86741 -1.65660 665 ft 11 kts 81°
2026-05-06 13:48 53.86738 -1.65505 663 ft 15 kts 91°
2026-05-06 13:48 53.86664 -1.65424 662 ft 17 kts 185°
2026-05-06 13:48 53.86590 -1.65434 665 ft 17 kts 184°
2026-05-06 13:49 53.86461 -1.65442 670 ft 17 kts 182°
2026-05-06 13:49 53.86406 -1.65448 675 ft 16 kts 184°
2026-05-06 13:49 53.86307 -1.65460 679 ft 16 kts 184°
2026-05-06 13:49 53.86197 -1.65450 677 ft 18 kts 154°
2026-05-06 13:50 53.86068 -1.65254 677 ft 23 kts 138°
2026-05-06 13:50 53.85928 -1.65031 667 ft 27 kts 120°
2026-05-06 13:50 53.85914 -1.64966 665 ft 10 kts 110°
2026-05-06 13:50 53.85874 -1.64982 664 ft 13 kts 298°
2026-05-06 13:51 53.85941 -1.65057 668 ft 0 kts 319°
2026-05-06 13:51 53.86093 -1.65288 679 ft 67 kts 318°
2026-05-06 13:52 53.86421 -1.65794 671 ft 116 kts 318°
2026-05-06 13:52 53.87471 -1.67378 933 ft 168 kts 320°
2026-05-06 13:52 53.88308 -1.68819 1838 ft 170 kts 306°
2026-05-06 13:52 53.89017 -1.70597 2627 ft 171 kts 308°
2026-05-06 13:53 53.89636 -1.72015 3220 ft 168 kts 302°
2026-05-06 13:53 53.89796 -1.74292 3496 ft 193 kts 262°
2026-05-06 13:53 53.89608 -1.76673 3663 ft 216 kts 259°
2026-05-06 13:53 53.88995 -1.79175 3845 ft 241 kts 231°
2026-05-06 13:54 53.87520 -1.81007 4166 ft 260 kts 194°
2026-05-06 13:54 53.85846 -1.81083 4670 ft 263 kts 162°
2026-05-06 13:54 53.84046 -1.79868 5426 ft 265 kts 147°
2026-05-06 13:54 53.82500 -1.77918 6184 ft 268 kts 134°
2026-05-06 13:55 53.81078 -1.75666 6825 ft 275 kts 136°
2026-05-06 13:55 53.80236 -1.74345 6996 ft 278 kts 136°
2026-05-06 13:55 53.78701 -1.71949 7782 ft 280 kts 136°
2026-05-06 13:55 53.76757 -1.68936 8704 ft 286 kts 136°
2026-05-06 13:56 53.75236 -1.66581 9415 ft 290 kts 137°
2026-05-06 13:56 53.73739 -1.64263 10111 ft 294 kts 137°
2026-05-06 13:56 53.72742 -1.62721 10315 ft 306 kts 137°
2026-05-06 13:56 53.71077 -1.60147 10457 ft 329 kts 137°
2026-05-06 13:57 53.70405 -1.59111 10502 ft 337 kts 137°
2026-05-06 13:57 53.69289 -1.57383 10589 ft 350 kts 137°
2026-05-06 13:57 53.67399 -1.54461 10717 ft 371 kts 137°
2026-05-06 13:57 53.65387 -1.51358 10988 ft 385 kts 137°
2026-05-06 13:58 53.63428 -1.48342 11576 ft 388 kts 137°
2026-05-06 13:58 53.61402 -1.45223 12101 ft 395 kts 137°
2026-05-06 13:58 53.59976 -1.43032 12513 ft 398 kts 138°
2026-05-06 13:58 53.57312 -1.38950 13372 ft 400 kts 138°
2026-05-06 13:59 53.55327 -1.35919 13923 ft 405 kts 138°
2026-05-06 13:59 53.53055 -1.32452 14500 ft 409 kts 138°
2026-05-06 13:59 53.50941 -1.29231 15112 ft 411 kts 138°
2026-05-06 13:59 53.48843 -1.25957 15666 ft 415 kts 134°
2026-05-06 14:00 53.47196 -1.21976 16204 ft 419 kts 117°
2026-05-06 14:00 53.45884 -1.17591 16799 ft 421 kts 116°
2026-05-06 14:00 53.44575 -1.13170 17330 ft 425 kts 116°
2026-05-06 14:00 53.43260 -1.08710 17845 ft 428 kts 116°
2026-05-06 14:01 53.41931 -1.04220 18372 ft 431 kts 117°
2026-05-06 14:01 53.40587 -0.99706 18790 ft 435 kts 117°
2026-05-06 14:01 53.39229 -0.95165 19214 ft 438 kts 117°
2026-05-06 14:01 53.37852 -0.90594 19631 ft 441 kts 118°
2026-05-06 14:02 53.36442 -0.86012 20032 ft 444 kts 118°
2026-05-06 14:02 53.35004 -0.81430 20498 ft 446 kts 118°
2026-05-06 14:02 53.33548 -0.76839 20960 ft 447 kts 119°
2026-05-06 14:02 53.32080 -0.72233 21370 ft 450 kts 119°
2026-05-06 14:03 53.30709 -0.67505 21770 ft 454 kts 112°
2026-05-06 14:03 53.29698 -0.62490 22177 ft 457 kts 108°
2026-05-06 14:03 53.28748 -0.57406 22608 ft 459 kts 108°
2026-05-06 14:03 53.27798 -0.52302 23004 ft 461 kts 108°
2026-05-06 14:04 53.26838 -0.47166 23384 ft 464 kts 108°
2026-05-06 14:04 53.25868 -0.42012 23762 ft 466 kts 108°
2026-05-06 14:04 53.24886 -0.36837 24070 ft 469 kts 109°
2026-05-06 14:04 53.23892 -0.31644 24376 ft 471 kts 109°
2026-05-06 14:05 53.22890 -0.26426 24697 ft 473 kts 109°
2026-05-06 14:05 53.21884 -0.21187 25034 ft 474 kts 109°
2026-05-06 14:05 53.20889 -0.16000 25345 ft 477 kts 109°
2026-05-06 14:05 53.19875 -0.10722 25664 ft 479 kts 109°
2026-05-06 14:06 53.18854 -0.05429 26010 ft 480 kts 109°
2026-05-06 14:06 53.17824 -0.00119 26323 ft 482 kts 110°
2026-05-06 14:06 53.16785 0.05221 26567 ft 485 kts 109°
2026-05-06 14:06 53.15744 0.10564 27012 ft 483 kts 109°
2026-05-06 14:07 53.14707 0.15871 27457 ft 482 kts 109°
2026-05-06 14:07 53.13667 0.21178 27854 ft 481 kts 110°
2026-05-06 14:07 53.12629 0.26464 28298 ft 480 kts 110°
2026-05-06 14:07 53.11589 0.31742 28754 ft 479 kts 110°
2026-05-06 14:08 53.10552 0.36995 29169 ft 478 kts 110°
2026-05-06 14:08 53.09513 0.42244 29583 ft 477 kts 110°
2026-05-06 14:08 53.08475 0.47475 30020 ft 476 kts 110°
2026-05-06 14:08 53.07435 0.52699 30391 ft 475 kts 110°
2026-05-06 14:09 53.06397 0.57895 30756 ft 474 kts 110°
2026-05-06 14:09 53.05355 0.63089 31094 ft 473 kts 110°
2026-05-06 14:09 53.04313 0.68261 31436 ft 472 kts 110°
2026-05-06 14:09 53.03271 0.73430 31771 ft 472 kts 110°
2026-05-06 14:10 53.02230 0.78591 32106 ft 471 kts 110°
2026-05-06 14:10 53.01189 0.83745 32439 ft 470 kts 110°
2026-05-06 14:10 53.00148 0.88891 32751 ft 470 kts 110°
2026-05-06 14:10 52.99105 0.94022 33088 ft 469 kts 110°
2026-05-06 14:11 52.98080 0.99153 33410 ft 469 kts 107°
2026-05-06 14:11 52.97360 1.04432 33723 ft 469 kts 102°
2026-05-06 14:11 52.96756 1.09735 34065 ft 467 kts 102°
2026-05-06 14:11 52.96148 1.15027 34328 ft 467 kts 102°
2026-05-06 14:12 52.95536 1.20317 34541 ft 467 kts 102°
2026-05-06 14:12 52.94922 1.25602 34763 ft 467 kts 102°
2026-05-06 14:12 52.94304 1.30896 34944 ft 468 kts 102°
2026-05-06 14:12 52.93682 1.36201 35000 ft 470 kts 102°
2026-05-06 14:13 52.92432 1.46837 34999 ft 470 kts 102°
2026-05-06 14:13 52.91180 1.57386 35002 ft 469 kts 102°
2026-05-06 14:14 52.89898 1.68041 34997 ft 469 kts 103°
2026-05-06 14:14 52.88623 1.78551 34992 ft 469 kts 103°
2026-05-06 14:15 52.87336 1.89136 35000 ft 469 kts 103°
2026-05-06 14:15 52.86039 1.99721 35004 ft 469 kts 103°
2026-05-06 14:16 52.84743 2.10185 35003 ft 469 kts 103°
2026-05-06 14:16 52.83427 2.20749 35001 ft 468 kts 103°
2026-05-06 14:17 52.82105 2.31290 35002 ft 468 kts 103°
2026-05-06 14:17 52.80773 2.41824 34997 ft 468 kts 103°
2026-05-06 14:18 52.79425 2.52341 34989 ft 468 kts 103°
2026-05-06 14:18 52.78072 2.62850 34986 ft 468 kts 103°
2026-05-06 14:19 52.76714 2.73353 34990 ft 467 kts 103°
2026-05-06 14:19 52.75346 2.83843 34991 ft 467 kts 103°
2026-05-06 14:20 52.73969 2.94330 34987 ft 467 kts 104°
2026-05-06 14:20 52.72649 3.04827 34977 ft 468 kts 102°
2026-05-06 14:21 52.71585 3.15431 34966 ft 468 kts 100°
2026-05-06 14:21 52.70594 3.26042 34969 ft 468 kts 101°
2026-05-06 14:22 52.69542 3.36630 34972 ft 468 kts 101°
2026-05-06 14:22 52.68439 3.47199 34968 ft 468 kts 101°
2026-05-06 14:23 52.67321 3.57757 34970 ft 467 kts 101°
2026-05-06 14:23 52.66216 3.68221 34960 ft 467 kts 102°
2026-05-06 14:24 52.65089 3.78815 34963 ft 466 kts 103°
2026-05-06 14:24 52.63976 3.89253 34956 ft 466 kts 102°
2026-05-06 14:25 52.62839 3.99755 34953 ft 466 kts 103°
2026-05-06 14:25 52.61692 4.10230 34950 ft 465 kts 102°
2026-05-06 14:26 52.60543 4.20689 34945 ft 464 kts 103°
2026-05-06 14:26 52.59386 4.31117 34944 ft 463 kts 103°
2026-05-06 14:27 52.58416 4.39772 34936 ft 463 kts 103°
2026-05-06 14:27 52.57240 4.50168 34928 ft 463 kts 103°